This is the latest recevied weather packets stored in our database for station/object KI4BIY. If no packets are shown the sender has not sent any weather packets the latest 10 day(s).
| Time | Temp. | Humidity | Pressure | Rain* | Wind** | Luminosity | Snow |
|---|---|---|---|---|---|---|---|
| 1778114287 | 11.67° C | 99% | 1014.2 hPa | 0 mm | - | 0 W/m² | - |
| 1778113982 | 11.67° C | 99% | 1014.3 hPa | 1.27 mm | - | 1 W/m² | - |
| 1778113678 | 11.67° C | 99% | 1014.4 hPa | 1.27 mm | - | 3 W/m² | - |
| 1778113374 | 11.67° C | 99% | 1014 hPa | 0 mm | - | 1 W/m² | - |
| 1778113071 | 11.67° C | 99% | 1014.4 hPa | 0 mm | - | 3 W/m² | - |
| 1778112769 | 11.67° C | 99% | 1014.4 hPa | 0 mm | - | 3 W/m² | - |
| 1778112464 | 11.67° C | 99% | 1014 hPa | 0 mm | - | 2 W/m² | - |
| 1778112161 | 11.67° C | 99% | 1014.1 hPa | 0 mm | - | 5 W/m² | - |
| 1778111857 | 11.67° C | 99% | 1013.7 hPa | 0 mm | - | 10 W/m² | - |
| 1778111552 | 11.67° C | 99% | 1014.4 hPa | 0 mm | - | 3 W/m² | - |
| 1778111250 | 11.67° C | 99% | 1014.7 hPa | 0 mm | - | 5 W/m² | - |
| 1778110947 | 11.67° C | 99% | 1014.6 hPa | 0 mm | - | 7 W/m² | - |
| 1778110645 | 11.67° C | 99% | 1014.4 hPa | 0 mm | - | 2 W/m² | - |
| 1778110341 | 11.67° C | 99% | 1014.4 hPa | 0 mm | - | 5 W/m² | - |
| 1778110037 | 11.67° C | 99% | 1014 hPa | 0 mm | - | 11 W/m² | - |
| 1778109732 | 11.67° C | 99% | 1014.2 hPa | 0 mm | - | 21 W/m² | - |
| 1778109430 | 11.67° C | 99% | 1014.2 hPa | 0 mm | - | 18 W/m² | - |
| 1778109129 | 11.67° C | 99% | 1013.9 hPa | 0 mm | - | 12 W/m² | - |
| 1778108824 | 12.22° C | 99% | 1014.1 hPa | 0 mm | - | 15 W/m² | - |
| 1778108521 | 12.22° C | 99% | 1014 hPa | 0 mm | - | 15 W/m² | - |
| 1778108218 | 12.22° C | 99% | 1013.8 hPa | 0 mm | - | 29 W/m² | - |
| 1778107915 | 12.22° C | 99% | 1013.2 hPa | 0 mm | - | 26 W/m² | - |
| 1778107611 | 12.22° C | 99% | 1013.2 hPa | 0 mm | - | 33 W/m² | - |
| 1778107308 | 12.22° C | 99% | 1013 hPa | 0 mm | - | 36 W/m² | - |
| 1778107005 | 12.22° C | 99% | 1013.2 hPa | 0 mm | - | 37 W/m² | - |
* Rain latest hour (hover to see other rain measurements)
** Current wind speed in m/s (hover to see current wind gust speed)